www.pogodaiklimat.ru

Погода и климат >> Архив погоды >> Россия >> Хакасия >> Первомайское


ПОГОДА в Первомайском

  • Прогноз погоды в Первомайском
  • Монитор погоды в Первомайском

АРХИВ ПОГОДЫ в Первомайском

Время (UTC), дата Ветер
(напр.,м/с)
 
Видим.   Явления Облачность Т
(С)
Тd
(С)
f
(%)
Тe
(С)
Тes
(С)
Комфортность P
(гПа)
Po
(гПа)
Тmin
(С)
Tmax
(С)
R
(мм)
R24
(мм)
S
(см)
09 15.08 З 5 20 км 7 баллов +25.3 +12.2 44 +27 +28 жарко 1009.8 978.7
12 15.08 З 3 20 км 5/0 2000 м
[Ac As Ci fib]
+24.6 +13.1 49 +27 +27 жарко 1008.0 977.0 +25.5
15 15.08 штиль 0 н/о 7 баллов +17.3 +14.8 85 +17 +17 1009.1 977.3
18 15.08 штиль 0 н/о 9 баллов +14.1 +13.1 94 +14 +14 1009.5 977.3
21 15.08 штиль 0 н/о 9 баллов +15.6 +14.6 94 +15 +15 1009.3 977.3
00 16.08 штиль 0 20 км 8/3 1000 м
[Sc Ci fib]
+12.4 +12.0 97 +12 +12 1008.6 976.3 +10.7
03 16.08 штиль 0 20 км 7 баллов +19.2 +15.1 77 +21 +24 комфорт 1008.9 977.3
06 16.08 Ю 1 20 км 9 баллов +23.2 +16.2 65 +28 +29 душно 1007.1 976.0
09 16.08 СЗ 5 20 км 10 баллов +24.0 +15.5 59 +27 +27 жарко 1005.7 974.7
12 16.08 СЗ 8
{12}
20 км {гроза} 10/6 600 м
[Cb cap Ac trans Ci sp]
+19.0 +15.6 81 +20 +20 1006.5 975.1 +24.5
15 16.08 С 4 н/о гроза, ливневой дождь 10 баллов +15.6 +15.0 96 +15 +15 1010.8 978.7
18 16.08 С 4 н/о слаб. ливневой дождь 10 баллов +15.0 +14.5 97 +14 +14 1010.9 978.7
21 16.08 С 4 н/о слаб. ливневой дождь 10 баллов +14.9 +14.3 96 +14 +14 1010.9 978.7
00 17.08 С 3 10 км слаб. ливневой дождь 10/10 600 м
[Cb cap]
+15.1 +14.2 94 +14 +14 1010.2 978.2 +14.8 45
03 17.08 З 3 20 км в посл. час ливневой дождь 10 баллов +16.4 +14.9 91 +16 +16 1012.0 980.0
06 17.08 СЗ 3 20 км 10 баллов +20.0 +14.4 70 +22 +22 комфорт 1013.0 981.3
09 17.08 З 4 20 км 10 баллов +23.3 +15.3 61 +28 +28 душно 1011.3 980.0
12 17.08 З 2 20 км 10/3 600 м
[Cu Sc Ac trans Ci sp]
+22.0 +14.9 64 +25 +26 комфорт 1010.9 979.6 +23.8 4
15 17.08 З 2 н/о 10 баллов +15.2 +14.1 93 +15 +15 1013.5 981.3
18 17.08 штиль 0 н/о 7 баллов +11.8 +11.3 97 +11 +11 1015.4 982.7
21 17.08 штиль 0 н/о 6 баллов +10.8 +10.8 100 +10 +10 1014.1 981.3
00 18.08 штиль 0 20 км 3/1 1000 м
[Sc Ci fib]
+10.8 +10.8 100 +10 +11 1012.8 981.0 +9.2
03 18.08 З 1 20 км 10 баллов +16.4 +14.2 87 +17 +17 1013.4 981.3
06 18.08 З 1 20 км 10 баллов +21.6 +15.9 70 +25 +25 комфорт 1012.8 981.3
09 18.08 З 3 20 км 10 баллов +18.6 +15.3 81 +20 +20 1011.8 980.0
12 18.08 С 1 20 км {ливн. осадки} 10/5 600 м
[Cb cap Ac trans Ci sp]
+18.8 +12.0 65 +21 +21 комфорт 1010.2 978.5 +22.2 0.4
15 18.08 штиль 0 н/о 6 баллов +12.0 +6.1 67 +12 +12 1015.4 982.7
18 18.08 штиль 0 н/о 7 баллов +9.8 +8.6 92 +9 +9 1015.7 982.7
21 18.08 З 1 н/о 4 балла +7.2 +6.8 97
00 19.08 штиль 0 20 км 1/0
[Ci fib]
+8.5 +7.9 96 +8 +8 1016.9 983.9 +7.0
03 19.08 ЮЗ 3 20 км 6 баллов +17.4 +13.1 76 +17 +20 1017.4 985.3
06 19.08 ЮВ 1 20 км 9 баллов +21.2 +12.3 57 +23 +25 комфорт 1017.0 985.3
09 19.08 ЮВ 1 20 км 7 баллов +23.0 +11.1 47 +25 +28 комфорт 1015.5 984.0
12 19.08 СЗ 3 20 км 10/0 2000 м
[Ac As Ci sp]
+20.0 +14.9 72 +23 +23 комфорт 1014.7 983.1 +23.2
15 19.08 З 2 н/о 9 баллов +16.4 +13.7 84 +17 +17 1016.2 984.0
18 19.08 штиль 0 н/о 10 баллов +15.0 +13.9 93 +15 +15 1016.3 984.0
21 19.08 штиль 0 н/о 10 баллов +14.2 +13.7 97 +14 +14 1015.1 982.7
00 20.08 З 2 20 км 10/10 600 м
[Cb cap]
+15.1 +13.6 91 +15 +15 1013.6 981.5 +13.9
03 20.08 В 1 20 км 10 баллов +19.0 +14.3 74 +21 +21 комфорт 1014.5 982.7
06 20.08 С 3 20 км 10 баллов +19.4 +14.0 71 +21 +21 комфорт 1014.5 982.7
09 20.08 ЮВ 3 20 км слаб. ливневой дождь 10 баллов +17.8 +15.8 88 +18 +18 1013.2 981.3
12 20.08 Ю 4 20 км слаб. ливневой дождь 10/10 600 м
[Cb cap]
+16.0 +15.0 94 +15 +15 1011.9 979.9 +19.6 11
15 20.08 Ю 3 н/о 10 баллов +15.0 +13.9 93 +14 +14 1016.3 984.0
18 20.08 штиль 0 н/о 10 баллов +13.6 +13.0 96 +13 +13 1016.5 984.0
21 20.08 ЮЗ 1 н/о 10 баллов +11.8 +11.0 95 +12 +12 1018.1 985.3
00 21.08 штиль 0 20 км 8/5 600 м
[Cb cap Ac trans Ci sp]
+9.8 +9.8 100 +9 +9 1016.3 983.5 +7.5 2
03 21.08 штиль 0 20 км 6 баллов +16.4 +12.2 76 +16 +20 1016.2 984.0
06 21.08 В 3 20 км 9 баллов +20.8 +10.9 53 +23 +24 комфорт 1014.4 982.7
09 21.08 В 5 20 км в посл. час ливневой дождь 10 баллов +16.3 +12.1 76 +15 +15 1017.6 985.3
12 21.08 В 3 20 км {гроза, ливн. осадки} 8/4 1000 м
[Sc Ac trans Ci sp]
+17.4 +9.4 59 +17 +18 1014.4 982.5 +21.2 3
15 21.08 штиль 0 н/о 2 балла +9.3 +9.2 99 +8 +8 1017.0 984.0
18 21.08 З 1 н/о 10 баллов +11.0 +10.2 95 +11 +11 1015.5 982.7
21 21.08 штиль 0 н/о 10 баллов +9.2 +8.7 97 +8 +8 1015.7 982.7
00 22.08 штиль 0 20 км 6/0 2000 м
[Ac trans]
+8.6 +8.2 97 +8 +8 1013.5 980.6 +7.8 0.3
03 22.08 штиль 0 20 км 7 баллов +17.2 +13.1 77 +17 +20 1012.0 980.0

 

Местоположение метеостанции Первомайское (Хакасия, Россия): широта 54.58 долгота 90.87 высота над уровнем моря 275 м.

В архиве по умолчанию представлена погода в Первомайском за последнюю неделю. Архивные данные за месяц целиком и за предыдущие месяцы, начиная с января 2011 года, Вы можете получить, выбрав интересующий диапазон дат из раскрывающегося списка и нажав кнопку "Ввод!".


*Определитесь, кто Вы:
робот инопланетянин человек

Внимание! Время в таблицах - всемирное. Для получения местного времени необходимо прибавить поправку, которая равна 7 ч.

Смотрите также архив погоды в соседних городах и на ближайших метеорологических станциях:

Погода в Светлолобово (Красноярский край, Россия) (58 км)
Погода в Шире (Хакасия, Россия) (61 км)
Погода в Лебяжьем (Красноярский край, Россия) (62 км)
Погода в Копьево-2 (Хакасия, Россия) (82 км)
Погода в Идринском (Красноярский край, Россия) (85 км)
Погода в Хакасской (Хакасия, Россия) (95 км)
Погода в Уйбате (Хакасия, Россия) (101 км)
Погода в Балахте (Красноярский край, Россия) (103 км)
Погода в Ужуре (Красноярский край, Россия) (104 км)
Погода в Коммунаре (Хакасия, Россия) (107 км)

Пояснения к столбцам:

Ветер - указаны скорость ветра в м/с - средняя за 10 мин, порывы в срок и между сроками (в фигурных скобках) и направление, откуда дует ветер: С - северный, СВ - северо-восточный, В - восточный, ЮВ - юго-восточный, Ю - южный, ЮЗ - юго-западный, З - западный, СЗ - северо-западный.
Видимость - горизонтальная дальность видимости в метрах или километрах. При видимости от 1 до 10 км при отсутствии осадков обычно наблюдается дымка, при ухудшении видимости до 1 км и менее - туман. В сухую погоду видимость может ухудшаться дымом, пылью или мглою.
Явления - указаны атмосферные явления, наблюдавшиеся в срок или в последний час перед сроком; фигурными скобками обозначены явления, наблюдавшиеся между сроками (за 1-3 часа до срока); квадратными скобками обозначены град или гололедные отложения с указанием их диаметра в мм.
Облачность - указаны через наклонную черту общая и нижняя облачность в баллах и высота нижней границы облаков в метрах; квадратными скобками обозначены формы облаков: Ci - перистые, Cs - перисто-слоистые, Cc - перисто-кучевые, Ac - высококучевые, As - высокослоистые, Sc - слоисто-кучевые, Ns - слоисто-дождевые, Cu - кучевые, Cb - кучево-дождевые. Подробнее классификацию облаков см. в Атласе облаков (PDF).
T - Температура воздуха - температура, измеренная на высоте 2 м над землей.
Td - Температура точки росы - температура, при понижении до которой содержащийся в воздухе водяной пар достигнет насыщения.
f - Относительная влажность воздуха - влажноcть воздуха, измеренная на высоте 2 м над землей.
Te - Эффективная температура - температура, которую ощущает одетый по сезону человек в тени. Характеристика душности погоды. При расчете учитывается влияние влажности воздуха и скорости ветра на теплоощущения человека.
Tes - Эффективная температура на солнце - температура, которую ощущает человек, с поправкой на солнечный нагрев. Характеристика знойности погоды. Зависит от высоты солнца над горизонтом, облачности и скорости ветра. Ночью, в пасмурную погоду, а также при ветре 12 м/с и более поправка равна нулю.
P - Атмосферное давление - приведенное к уровню моря атмосферное давление.
Po - Атмосферное давление - измеренное на уровне метеостанции атмосферное давление.
Tmin - Минимальная температура - минимум температуры воздуха на высоте 2 м над землей.
Tmax - Максимальная температура - максимум температуры воздуха на высоте 2 м над землей.
R - Количество осадков - Количество выпавших осадков за период времени, мм. При наведении курсора мыши на число - период времени, за который выпало указанное количество осадков.
R24 - Количество осадков - Количество выпавших осадков за 24 часа, мм.
S - Снежный покров - Высота снежного покрова, см. При наведении курсора мыши на число - состояние снежного покрова и степень покрытия местности в баллах.